Newport News, VA

2:42 AM EST on December 16, 2019 (GMT -0500)
Newport News-Williamsburg International

Weather History for KPHF - September, 2019

Change the Weather History Date:

Sunday, September 22, 2019

  Actual Average Record
Temperature  
Mean Temperature 76 °F -  
Max Temperature 87 °F 81 °F 98 °F (1980)
Min Temperature 66 °F 61 °F 48 °F (1997)
Cooling Degree Days 12    
Growing Degree Days 26 (Base 50)    
Moisture  
Dew Point 62 °F    
Average Humidity 63    
Maximum Humidity 81    
Minimum Humidity 44    
Precipitation  
Precipitation 0.00 in - - ()
Sea Level Pressure  
Sea Level Pressure 30.15 in    
Wind  
Wind Speed 7 mph ()    
Max Wind Speed 14 mph    
Max Gust Speed 17 mph    
Visibility 10.0 miles    
Events      
Averages and records for this station are not official NWS values.
T = Trace of Precipitation, MM = Missing Value Source: Averaged Metar Reports

Daily Weather History Graph

Daily Weather History Graph

Search for Another Location

Airport or City:

Astronomy

Sep. 22, 2019 Rise Set
Actual Time 6:53 AM EDT 7:03 PM EDT
Civil Twilight 6:27 AM EDT 7:29 PM EDT
Nautical Twilight 5:57 AM EDT 7:59 PM EDT
Astronomical Twilight 5:26 AM EDT 8:30 PM EDT
Moon No Moon Rise 2:47 PM EDT (9/22)
Length of Visible Light 13h 01m
Length of Day
12h 09m
Last Quarter, 44% of the Moon is Illuminated
Sep 22
Last Quarter
Sep 28
New
Oct 5
First Quarter
Oct 13
Full
Oct 21
Last Quarter

Hourly Weather History & Observations

Time (EDT) Temp. Heat Index Dew Point Humidity Pressure Visibility Wind Dir Wind Speed Gust Speed Precip Events Conditions
12:54 AM 69.1 °F - 61.0 °F 75% 30.21 in 10.0 mi SSW 5.8 mph - N/A   Clear
1:54 AM 69.1 °F - 61.0 °F 75% 30.22 in 10.0 mi SSW 6.9 mph - N/A   Clear
2:54 AM 69.1 °F - 61.0 °F 75% 30.19 in 10.0 mi SW 8.1 mph - N/A   Clear
3:54 AM 68.0 °F - 61.0 °F 78% 30.19 in 10.0 mi SW 5.8 mph - N/A   Clear
4:54 AM 66.9 °F - 60.1 °F 79% 30.18 in 10.0 mi SSW 6.9 mph - N/A   Clear
5:54 AM 66.9 °F - 60.1 °F 79% 30.19 in 10.0 mi SW 6.9 mph - N/A   Clear
6:54 AM 66.0 °F - 60.1 °F 81% 30.19 in 10.0 mi SW 5.8 mph - N/A   Clear
7:01 AM 66.0 °F - 60.1 °F 81% 30.18 in 10.0 mi SSW 6.9 mph - N/A   Partly Cloudy
7:54 AM 69.1 °F - 61.0 °F 75% 30.19 in 10.0 mi SW 5.8 mph - N/A   Clear
8:54 AM 72.0 °F - 61.0 °F 68% 30.20 in 10.0 mi SW 9.2 mph - N/A   Clear
9:54 AM 75.0 °F - 61.0 °F 62% 30.20 in 10.0 mi SW 8.1 mph - N/A   Clear
10:54 AM 79.0 °F - 62.1 °F 56% 30.20 in 10.0 mi SSW 9.2 mph - N/A   Mostly Cloudy
11:54 AM 82.9 °F 83.7 °F 62.1 °F 49% 30.18 in 10.0 mi South 9.2 mph - N/A   Scattered Clouds
12:54 PM 84.9 °F 85.9 °F 63.0 °F 48% 30.16 in 10.0 mi South 11.5 mph - N/A   Partly Cloudy
1:54 PM 87.1 °F 87.8 °F 63.0 °F 44% 30.14 in 10.0 mi South 12.7 mph 17.3 mph N/A   Clear
2:54 PM 87.1 °F 87.8 °F 63.0 °F 44% 30.11 in 10.0 mi South 11.5 mph - N/A   Clear
3:54 PM 87.1 °F 87.8 °F 63.0 °F 44% 30.09 in 10.0 mi SSW 13.8 mph - N/A   Clear
4:54 PM 87.1 °F 87.8 °F 63.0 °F 44% 30.09 in 10.0 mi SSW 10.4 mph - N/A   Clear
5:54 PM 84.9 °F 85.9 °F 63.0 °F 48% 30.09 in 10.0 mi South 12.7 mph - N/A   Clear
6:54 PM 81.0 °F 82.2 °F 63.0 °F 54% 30.09 in 10.0 mi South 10.4 mph - N/A   Clear
7:54 PM 80.1 °F 81.5 °F 63.0 °F 56% 30.09 in 10.0 mi South 9.2 mph - N/A   Clear
9:54 PM 75.9 °F - 64.0 °F 67% 30.10 in 10.0 mi South 10.4 mph - N/A   Clear
10:54 PM 73.9 °F - 63.0 °F 68% 30.10 in 10.0 mi South 11.5 mph - N/A   Clear
11:54 PM 72.0 °F - 62.1 °F 71% 30.10 in 10.0 mi SSW 10.4 mph - N/A   Clear